GW6317 Weather Reports


time (UTC)temp
F
wind
direction
speed
knots
gust
knots
rain 1hr
in
rain 24hr
in
rain mn
in
humidity
%
barometer
mb
20260506004534 67 323 15.6 23.5 0.00 0.00 0.00 33 1014.0
20260506004015 67 316 12.2 20.0 0.00 0.00 0.00 34 1014.0
20260506003514 67 318 13.0 20.0 0.00 0.00 0.00 34 1013.9
20260506003032 68 22 11.3 16.5 0.00 0.00 0.00 35 1013.9
20260506002514 67 344 8.7 20.0 0.00 0.00 0.00 35 1013.8
20260506002015 66 323 13.0 20.0 0.00 0.00 0.00 33 1013.8
20260506001533 66 340 9.6 22.6 0.00 0.00 0.00 37 1013.8
20260506001014 66 26 12.2 25.2 0.00 0.00 0.00 34 1013.8
20260506000514 67 327 14.8 25.2 0.00 0.00 0.00 33 1013.9
20260506000038 67 336 13.0 22.6 0.00 0.00 0.00 34 1013.9
20260505235514 66 309 9.6 18.2 0.00 0.00 0.00 35 1013.6
20260505235015 64 335 8.7 19.1 0.00 0.00 0.00 37 1013.8
20260505234529 64 327 9.6 19.1 0.00 0.00 0.00 38 1013.7
20260505234018 65 322 12.2 22.6 0.00 0.00 0.00 36 1013.7
20260505233512 66 323 9.6 22.6 0.00 0.00 0.00 36 1013.7
20260505233030 68 319 7.8 18.2 0.00 0.00 0.00 37 1013.8
20260505232517 67 315 10.4 18.2 0.00 0.00 0.00 36 1013.7
20260505232015 66 324 11.3 18.2 0.00 0.00 0.00 36 1013.7
20260505231535 64 326 9.6 15.6 0.00 0.00 0.00 39 1013.6
20260505231017 64 352 9.6 18.2 0.00 0.00 0.00 39 1013.8
20260505230514 64 325 7.8 20.9 0.00 0.00 0.00 39 1013.9
20260505230036 65 331 13.9 22.6 0.00 0.00 0.00 36 1013.9
20260505225516 67 327 15.6 22.6 0.00 0.00 0.00 33 1013.9
20260505225015 68 323 8.7 17.4 0.00 0.00 0.00 36 1013.8
20260505224532 67 336 7.8 19.1 0.00 0.00 0.00 38 1013.8
20260505224014 66 313 9.6 19.1 0.00 0.00 0.00 38 1013.8
20260505223517 66 337 10.4 21.7 0.00 0.00 0.00 38 1013.8
20260505223034 67 323 11.3 21.7 0.00 0.00 0.00 39 1013.9
20260505222515 66 336 14.8 22.6 0.00 0.00 0.00 37 1014.0
20260505222015 66 335 13.0 22.6 0.00 0.00 0.00 37 1014.0
20260505221531 67 332 10.4 20.0 0.00 0.00 0.00 38 1014.0
20260505221015 67 326 13.0 20.0 0.00 0.00 0.00 36 1013.9
20260505220514 67 294 11.3 18.2 0.00 0.00 0.00 37 1013.9
20260505220031 66 310 10.4 19.1 0.00 0.00 0.00 40 1013.9
20260505215514 65 310 12.2 19.1 0.00 0.00 0.00 39 1014.1
20260505215014 63 352 11.3 18.2 0.00 0.00 0.00 39 1014.0
20260505214544 64 321 10.4 19.1 0.00 0.00 0.00 41 1014.0
20260505214015 63 331 12.2 19.1 0.00 0.00 0.00 39 1014.0
20260505213518 62 320 11.3 24.3 0.00 0.00 0.00 41 1014.1
20260505213028 63 332 13.0 24.3 0.00 0.00 0.00 40 1014.0
20260505212514 64 313 13.9 22.6 0.00 0.00 0.00 38 1014.0
20260505212015 65 360 13.0 20.0 0.00 0.00 0.00 38 1014.0
20260505211534 66 332 11.3 19.1 0.00 0.00 0.00 38 1014.1
20260505211016 64 321 9.6 18.2 0.00 0.00 0.00 40 1014.0
20260505210514 66 315 11.3 16.5 0.00 0.00 0.00 37 1014.0
20260505210036 67 325 12.2 16.5 0.00 0.00 0.00 34 1013.9
20260505205515 67 360 7.8 14.8 0.00 0.00 0.00 34 1013.9
20260505205017 65 352 8.7 13.0 0.00 0.00 0.00 38 1014.0
20260505204533 63 342 6.1 12.2 0.00 0.00 0.00 43 1013.9
20260505204014 63 290 4.3 11.3 0.00 0.00 0.00 43 1014.0
20260505203520 63 311 5.2 11.3 0.00 0.00 0.00 44 1014.0
20260505203030 63 260 4.3 14.8 0.00 0.00 0.00 45 1014.0
20260505202514 62 295 8.7 16.5 0.00 0.00 0.00 43 1013.9
20260505202015 62 316 9.6 16.5 0.00 0.00 0.00 45 1014.1
20260505201533 64 327 6.1 13.0 0.00 0.00 0.00 43 1014.0
20260505201015 66 319 7.0 12.2 0.00 0.00 0.00 42 1014.0
20260505200515 66 219 1.7 5.2 0.00 0.00 0.00 45 1014.0
20260505200041 67 235 0.9 5.2 0.00 0.00 0.00 45 1014.2
20260505195513 67 217 1.7 7.0 0.00 0.00 0.00 46 1014.5
20260505195014 66 264 1.7 7.8 0.00 0.00 0.00 45 1014.4
20260505194530 65 238 3.5 11.3 0.00 0.00 0.00 49 1014.4
20260505194016 64 291 2.6 11.3 0.00 0.00 0.00 46 1014.4
20260505193518 67 335 4.3 8.7 0.00 0.00 0.00 43 1014.6
20260505193034 68 273 1.7 6.1 0.00 0.00 0.00 48 1014.6
20260505192519 69 259 0.9 5.2 0.00 0.00 0.00 44 1014.5
20260505192016 68 255 2.6 6.1 0.00 0.00 0.00 49 1014.5
20260505191529 67 263 2.6 6.1 0.00 0.00 0.00 48 1014.5
20260505191016 67 230 2.6 7.8 0.00 0.00 0.00 50 1014.5
20260505190514 66 230 2.6 7.8 0.00 0.00 0.00 49 1014.5
20260505190031 66 277 1.7 6.1 0.00 0.00 0.00 51 1014.5
20260505185518 64 260 1.7 4.3 0.00 0.00 0.00 56 1014.5
20260505185019 63 221 1.7 6.1 0.00 0.00 0.00 55 1014.5
20260505184533 63 279 2.6 6.1 0.00 0.00 0.00 52 1014.4
20260505184014 62 277 0.9 6.1 0.00 0.00 0.00 56 1014.4
20260505183513 61 273 1.7 7.0 0.00 0.00 0.00 58 1014.6
20260505183041 61 209 2.6 7.8 0.00 0.00 0.00 57 1014.4
20260505182516 61 350 2.6 7.8 0.00 0.00 0.00 58 1014.6
20260505182018 60 177 0.9 4.3 0.00 0.00 0.00 57 1014.6
20260505181532 60 288 2.6 4.3 0.00 0.00 0.00 58 1014.5
20260505181014 59 298 1.7 4.3 0.00 0.00 0.00 62 1014.8
20260505180514 59 271 0.9 5.2 0.00 0.00 0.00 61 1014.6
20260505180029 59 281 2.6 5.2 0.00 0.00 0.00 59 1014.7
20260505175514 59 238 1.7 4.3 0.00 0.00 0.00 63 1014.6
20260505175014 58 224 0.9 3.5 0.00 0.00 0.00 61 1014.6
20260505174534 58 257 1.7 3.5 0.00 0.00 0.00 64 1014.5
20260505174014 57 278 0.9 3.5 0.00 0.00 0.00 69 1014.5
20260505173519 56 250 1.7 3.5 0.00 0.00 0.00 68 1014.5
20260505173032 55 294 1.7 3.5 0.00 0.00 0.00 71 1014.5
20260505172514 54 310 0.9 4.3 0.00 0.00 0.00 73 1014.5
20260505172013 53 275 1.7 7.0 0.00 0.00 0.00 75 1014.5
20260505171532 53 301 3.5 7.0 0.00 0.00 0.00 71 1014.5
20260505171014 53 332 0.9 5.2 0.00 0.00 0.00 74 1014.5
20260505170513 53 253 1.7 5.2 0.00 0.00 0.00 73 1014.6
20260505170030 52 252 0.9 5.2 0.00 0.00 0.00 78 1014.5
20260505165513 51 240 1.7 4.3 0.00 0.00 0.00 78 1014.6
20260505165014 51 5 0.9 4.3 0.00 0.00 0.00 78 1014.6
20260505164530 50 260 1.7 4.3 0.00 0.00 0.00 78 1014.4
20260505164016 50 211 0.9 3.5 0.00 0.00 0.00 79 1014.4
20260505163514 50 217 1.7 3.5 0.00 0.00 0.00 78 1014.4
20260505163032 50 181 1.7 3.5 0.00 0.00 0.00 84 1014.5
20260505162513 49 250 0.9 4.3 0.00 0.00 0.00 82 1014.5
20260505162013 49 138 2.6 6.1 0.00 0.00 0.00 83 1014.6
20260505161530 49 205 0.9 6.1 0.00 0.00 0.00 84 1014.6
20260505161015 48 175 3.5 6.1 0.00 0.00 0.00 84 1014.6
20260505160516 48 200 2.6 5.2 0.00 0.00 0.00 85 1014.6
20260505153030 46 210 1.7 5.2 0.00 0.00 0.00 88 1014.5
20260505152518 46 140 2.6 4.3 0.00 0.00 0.00 89 1014.4
20260505152017 46 196 0.9 3.5 0.00 0.00 0.00 89 1014.4
20260505151535 46 171 0.9 4.3 0.00 0.00 0.00 90 1014.3
20260505151015 46 198 1.7 4.3 0.00 0.00 0.00 90 1014.4
20260505150520 45 165 1.7 3.5 0.00 0.00 0.00 91 1014.2
20260505140515 43 165 0.9 3.5 0.00 0.00 0.00 93 1013.7
20260505125018 43 0 0.0 1.7 0.00 0.00 0.00 94 1013.0
20260505124536 42 0 0.0 1.7 0.00 0.00 0.00 93 1013.1
20260505124012 42 84 0.0 1.7 0.00 0.00 0.00 93 1013.1
20260505123519 42 0 0.0 1.7 0.00 0.00 0.00 93 1013.0
20260505123032 42 0 0.0 1.7 0.00 0.00 0.00 93 1013.0
20260505122515 42 0 0.0 1.7 0.00 0.00 0.00 93 1013.0
20260505122015 42 109 0.0 2.6 0.00 0.00 0.00 93 1012.9
20260505121536 42 138 0.9 3.5 0.00 0.00 0.00 93 1012.9
20260505121015 42 117 1.7 3.5 0.00 0.00 0.00 93 1012.8
20260505120515 42 150 0.9 3.5 0.00 0.00 0.00 93 1012.7
20260505120043 42 133 1.7 5.2 0.00 0.00 0.00 93 1012.5
20260505115519 42 161 2.6 5.2 0.00 0.00 0.00 93 1012.6
20260505115023 42 150 1.7 5.2 0.00 0.00 0.00 93 1012.6
20260505114536 42 173 3.5 5.2 0.00 0.00 0.00 92 1012.6
20260505114016 42 171 2.6 5.2 0.00 0.00 0.00 92 1012.5
20260505113515 42 159 0.9 3.5 0.00 0.00 0.00 91 1012.5
20260505113031 42 0 0.0 1.7 0.00 0.00 0.00 92 1012.5
20260505112515 42 113 0.0 2.6 0.00 0.00 0.00 92 1012.5
20260505112015 42 141 0.9 3.5 0.00 0.00 0.00 92 1012.5
20260505111533 43 122 0.9 3.5 0.00 0.00 0.00 92 1012.5
20260505111015 43 104 2.6 5.2 0.00 0.00 0.00 92 1012.5
20260505110515 43 92 1.7 5.2 0.00 0.00 0.00 92 1012.5
20260505102015 44 170 2.6 6.1 0.00 0.00 0.00 91 1012.5
20260505101542 44 141 2.6 5.2 0.00 0.00 0.00 91 1012.5
20260505101017 44 158 3.5 5.2 0.00 0.00 0.00 91 1012.5
20260505100515 44 146 2.6 6.1 0.00 0.00 0.00 91 1012.6
20260505100031 44 132 2.6 7.0 0.00 0.00 0.00 91 1012.4
20260505095515 44 137 3.5 7.0 0.00 0.00 0.00 91 1012.3
20260505095015 44 151 2.6 5.2 0.00 0.00 0.00 91 1012.5
20260505094539 44 151 2.6 6.1 0.00 0.00 0.00 91 1012.4
20260505094015 45 134 3.5 7.0 0.00 0.00 0.00 91 1012.4
20260505093515 45 159 4.3 7.8 0.00 0.00 0.00 91 1012.3
20260505093035 45 161 4.3 7.8 0.00 0.00 0.00 91 1012.5
20260505092518 45 135 2.6 5.2 0.00 0.00 0.00 91 1012.6
20260505092016 45 105 1.7 5.2 0.00 0.00 0.00 90 1012.7
20260505091539 45 150 1.7 4.3 0.00 0.00 0.00 90 1012.5
20260505091018 45 172 1.7 3.5 0.00 0.00 0.00 90 1012.7
20260505090518 45 157 1.7 5.2 0.00 0.00 0.00 90 1012.7
20260505090032 45 108 0.9 6.1 0.00 0.00 0.00 90 1012.8
20260505085522 45 175 2.6 6.1 0.00 0.00 0.00 90 1012.7
20260505085016 45 173 3.5 5.2 0.00 0.00 0.00 90 1012.8
20260505084535 45 158 1.7 4.3 0.00 0.00 0.00 89 1012.8
20260505084016 45 156 1.7 4.3 0.00 0.00 0.00 89 1012.9
20260505083515 45 161 1.7 7.0 0.00 0.00 0.00 89 1012.9
20260505083035 45 199 3.5 7.0 0.00 0.00 0.00 89 1012.9
20260505082521 45 202 0.9 3.5 0.00 0.00 0.00 89 1013.0
20260505082019 45 204 1.7 4.3 0.00 0.00 0.00 89 1012.9
20260505081530 45 178 1.7 7.0 0.00 0.00 0.00 89 1012.8
20260505081024 45 183 1.7 7.0 0.00 0.00 0.00 89 1012.8
20260505080516 45 178 2.6 6.1 0.00 0.00 0.00 89 1012.8
20260505080032 45 173 2.6 6.1 0.00 0.00 0.00 89 1012.7
20260505075516 46 162 2.6 6.1 0.00 0.00 0.00 89 1012.8
20260505075021 46 179 2.6 6.1 0.00 0.00 0.00 89 1012.8
20260505074535 46 169 2.6 5.2 0.00 0.00 0.00 89 1012.8
20260505074016 46 167 2.6 5.2 0.00 0.00 0.00 89 1012.5
20260505073520 46 157 0.9 6.1 0.00 0.00 0.00 89 1012.7
20260505073037 46 176 1.7 6.1 0.00 0.00 0.00 89 1012.7
20260505072516 46 190 3.5 7.8 0.00 0.00 0.00 89 1012.7
20260505072016 46 185 2.6 7.8 0.00 0.00 0.00 89 1012.6
20260505071534 46 202 2.6 7.0 0.00 0.00 0.00 89 1012.6
20260505071019 46 167 2.6 8.7 0.00 0.00 0.00 89 1012.5
20260505070521 46 189 3.5 8.7 0.00 0.00 0.00 89 1012.6
20260505070041 46 200 4.3 8.7 0.00 0.00 0.00 89 1012.5
20260505065516 46 175 4.3 9.6 0.00 0.00 0.00 89 1012.5
20260505065016 46 153 5.2 9.6 0.00 0.00 0.00 89 1012.3
20260505064539 46 144 4.3 10.4 0.00 0.00 0.00 88 1012.2
20260505064016 47 167 5.2 10.4 0.00 0.00 0.00 88 1012.1
20260505063513 47 175 4.3 10.4 0.00 0.00 0.00 88 1012.2
20260505063030 47 174 7.8 10.4 0.00 0.00 0.00 88 1012.2
20260505062517 47 151 3.5 7.8 0.00 0.00 0.00 87 1012.4
20260505062012 47 161 3.5 10.4 0.00 0.00 0.00 87 1012.3
20260505061534 47 126 5.2 10.4 0.00 0.00 0.00 87 1012.2
20260505061018 47 134 5.2 10.4 0.00 0.00 0.00 87 1012.0
20260505060515 47 129 6.1 10.4 0.00 0.00 0.00 86 1011.9
20260505060044 47 131 5.2 10.4 0.00 0.00 0.00 85 1011.8
20260505055518 48 138 5.2 10.4 0.00 0.00 0.00 84 1011.7
20260505055015 48 156 6.1 9.6 0.00 0.00 0.00 83 1011.8
20260505054533 49 165 7.0 9.6 0.00 0.00 0.00 82 1011.6
20260505054016 49 139 6.1 9.6 0.00 0.00 0.00 81 1011.6
20260505053515 49 171 7.0 9.6 0.00 0.00 0.00 80 1011.5
20260505053033 50 138 4.3 9.6 0.00 0.00 0.00 79 1011.4
20260505052515 50 177 6.1 9.6 0.00 0.00 0.00 78 1011.3
20260505052015 51 153 5.2 7.0 0.00 0.00 0.00 77 1011.3
20260505051535 51 146 3.5 6.1 0.00 0.00 0.00 75 1011.3
20260505051015 51 113 4.3 9.6 0.00 0.00 0.00 74 1011.2
20260505050515 51 122 6.1 10.4 0.00 0.00 0.00 75 1011.1
20260505041530 52 112 5.2 10.4 0.00 0.00 0.00 72 1010.9
20260505041015 52 128 5.2 10.4 0.00 0.00 0.00 73 1010.8
20260505040515 52 61 5.2 10.4 0.00 0.00 0.00 71 1010.7
20260505040032 53 119 5.2 10.4 0.00 0.00 0.00 70 1010.5
20260505035518 53 143 5.2 9.6 0.00 0.00 0.00 70 1010.3
20260505035014 53 122 5.2 9.6 0.00 0.00 0.00 68 1010.1
20260505034530 54 129 5.2 10.4 0.00 0.00 0.00 67 1009.9
20260505034015 54 134 6.1 10.4 0.00 0.00 0.00 66 1009.7
20260505033516 55 121 4.3 8.7 0.00 0.00 0.00 65 1009.7
20260505033031 55 133 4.3 9.6 0.00 0.00 0.00 64 1009.6
20260505032518 55 157 6.1 9.6 0.00 0.00 0.00 63 1009.6
20260505032015 56 161 5.2 8.7 0.00 0.00 0.00 62 1009.6
20260505031534 56 92 4.3 7.8 0.00 0.00 0.00 60 1009.5
20260505031015 57 150 4.3 8.7 0.00 0.00 0.00 59 1009.4
20260505030519 58 132 6.1 8.7 0.00 0.00 0.00 51 1009.4
20260505030035 59 186 3.5 6.1 0.00 0.00 0.00 51 1009.3
20260505025518 60 178 2.6 7.0 0.00 0.00 0.00 49 1009.4
20260505025019 61 296 1.7 8.7 0.00 0.00 0.00 32 1009.3
20260505024532 61 5 4.3 8.7 0.00 0.00 0.00 32 1009.3
20260505024015 61 346 3.5 11.3 0.00 0.00 0.00 31 1009.1
20260505023519 62 350 5.2 11.3 0.00 0.00 0.00 31 1009.1
20260505023039 62 350 6.1 15.6 0.00 0.00 0.00 29 1009.0
20260505022518 63 5 8.7 15.6 0.00 0.00 0.00 29 1009.0
20260505022022 62 352 5.2 10.4 0.00 0.00 0.00 28 1008.9
20260505021536 63 352 3.5 11.3 0.00 0.00 0.00 28 1009.0
20260505021017 63 12 5.2 11.3 0.00 0.00 0.00 29 1008.9
20260505020519 63 338 4.3 10.4 0.00 0.00 0.00 27 1008.9
20260505020035 63 43 5.2 10.4 0.00 0.00 0.00 26 1008.8
20260505015519 63 326 5.2 12.2 0.00 0.00 0.00 26 1008.8
20260505015015 63 9 6.1 18.2 0.00 0.00 0.00 24 1008.9
20260505014535 63 24 6.1 18.2 0.00 0.00 0.00 24 1009.0
20260505014019 63 9 4.3 12.2 0.00 0.00 0.00 24 1009.0
20260505013515 64 352 6.1 12.2 0.00 0.00 0.00 23 1008.9
20260505013048 65 335 5.2 13.0 0.00 0.00 0.00 22 1009.0
20260505012515 66 17 4.3 13.9 0.00 0.00 0.00 23 1009.0
20260505012018 66 5 8.7 14.8 0.00 0.00 0.00 22 1008.9
20260505011539 66 36 3.5 14.8 0.00 0.00 0.00 22 1008.9
20260505011017 66 257 7.0 14.8 0.00 0.00 0.00 21 1008.9
20260505010520 66 22 4.3 16.5 0.00 0.00 0.00 21 1008.9
20260505010038 66 22 5.2 17.4 0.00 0.00 0.00 21 1008.9
20260505005520 66 352 10.4 20.0 0.00 0.00 0.00 20 1009.0
20260505005018 66 341 12.2 19.1 0.00 0.00 0.00 20 1009.0